Location: Brunembert
(50.7122°N, 1.8935°E)
Time: 03:27:54
(UTC+00:00)

Cosmos 1602 - Pass Details

Date: 22 April 2021
Orbit: 512 x 534 km, 82.5° (Epoch: 06 May)

Event Time Altitude Azimuth Distance (km) Brightness Sun altitude
Rises 22:45:00 0° 350° (N) 2,640 8.6 -25.2°
Reaches altitude 10° 22:47:09 10° 351° (N) 1,748 7.4 -25.3°
Enters shadow 22:50:03 50° 360° (N) 664 4.5 -25.4°
